ONEWEB-0101 (48049 NORAD) Tracking and Keplerian Element Data

This shows tracking and keplerian element data for the satellite.

Feedback or suggestion? Click here.




ElementValue
Catalog48049
NameONEWEB-0101
Epoch Orbit188
Epoch Day173.91668981
Epoch Year2021
RAAN322.3223
Inclination87.7863
Eccentricity0.0007026
Argument of Perigee323.9202
Mean Anonmoly271.8205
Mean Motion13.6911346
Decay Rate1.5E-07
L11 48049U 21025H 21173.91668981 .00000015 00000-0 00000-0 0 9993
L22 48049 87.7863 322.3223 0007026 323.9202 271.8205 13.69113460 1885

Live tracking and technical data element details for ONEWEB-0101 (NORAD 48049). ONEWEB-0101 can be tracked NOW for your location showing map with azimuth and elevation plus other details from your city location.

Track the satellite on the map from your city or location and see movement details for azimuth, elevation, latitude, longitude, range, height, and movement on the map or in text.







IsCatalogInMostPopularTable: catalog: 48049, numindb: 39
Update: records affected: 1



GetName: 48049 ONEWEB-0101

Hit Count: updated at: Thu, 24 Jun 2021 03:05:05 GMT